Location: Newark
(23.6000°N, 58.5500°E)
Time: 15:15:56
(UTC+00:00)

Envisat - Visible Passes

Search period start: 26 September 2020 00:00
Search period end: 06 October 2020 00:00
Orbit: 764 x 766 km, 98.1° (Epoch: 26 September)

Date Brightness Start Highest point End Pass type
(mag) Time Alt. Az. Time Alt. Az. Time Alt. Az.
26 Sep 5.3 01:19:26 10° NE 01:23:49 29° E 01:28:09 10° SSE visible
27 Sep 6.5 00:45:48 10° E 00:46:51 11° E 00:47:54 10° ESE visible
28 Sep 6.0 14:29:31 10° SW 14:33:13 20° W 14:36:56 10° NW visible
29 Sep 5.8 01:08:32 10° NE 01:12:25 22° E 01:16:17 10° SSE visible
01 Oct 4.5 01:33:05 10° NNE 01:37:55 43° E 01:42:42 10° S visible
01 Oct 5.5 14:17:34 10° SSW 14:21:49 27° W 14:26:04 10° NW visible
02 Oct 6.1 00:57:52 10° ENE 01:01:01 16° E 01:04:08 10° SE visible
03 Oct 6.3 14:44:53 10° SW 14:47:21 14° W 14:49:49 10° WNW visible
04 Oct 5.1 01:22:01 10° NE 01:26:32 32° E 01:31:01 10° SSE visible
04 Oct 4.9 14:05:48 10° SSW 14:10:25 36° W 14:15:04 10° NNW visible
05 Oct 6.4 00:47:41 10° ENE 00:49:36 12° E 00:51:30 10° ESE visible
